Flag for Switzerland Weather past 2 weeks in Thalwil, Zurich, Switzerland

Now
32 °F

Chilly.


Feels Like: 28 °F
Forecast: 26 / 36 °F
Wind: 3 mph from South

Location: Zurich Town / Ville.

Current Time: Jan 31, 2015 at 10:12:11 PM

Latest Report: Jan 31, 2015 at 9:00 PM


Visibility: N/A

Pressure: 29.23 "Hg

Humidity: 95%

Dew point: 31 °F

Location of ThalwilLocation

Historic Weather in Thalwil — Graph

°F

Thalwil temperature yesterday

Maximum temperature yesterday: 34 °F (at 4:00 PM)
Minimum temperature yesterday: 31 °F (at 8:00 AM)
Average temperature yesterday: 32 °F

Past Weeks' High & Low Weather Summary

 TemperatureHumidityPressure
High41 °F (Jan 16, 8:00 PM)100% (Jan 17, 8:00 AM)30.47 "Hg (Jan 17, 8:00 AM)
Low26 °F (Jan 26, 7:00 AM)57% (Jan 31, 3:00 PM)28.88 "Hg (Jan 30, 1:00 AM)
Average32 °F89%29.93 "Hg
* Reported Jan 16 8:00 PM — Jan 31 8:00 PM, Thalwil, Weather by CustomWeather, © 2014

Note: Actual official high and low records may vary slightly from our data, if they occured in-between our weather recording intervals... More about our weather records

Advertising

Thalwil weather history for previous 24 hours

 ConditionsComfort  
Time TempWeatherWind HumidityBarometerVisibility
8:00 PM
Jan 31
32 °FChilly.5 mph95%29.23 "HgN/A
7:00 PM32 °FChilly.2 mph93%29.21 "HgN/A
6:00 PM31 °FChilly.6 mph95%29.21 "HgN/A
5:00 PM32 °FChilly.5 mph89%29.18 "HgN/A
4:00 PM34 °FChilly.9 mph74%29.15 "HgN/A
3:00 PM37 °FChilly.7 mph57%29.12 "HgN/A
2:00 PM36 °FChilly.6 mph58%29.12 "HgN/A
1:00 PM37 °FChilly.7 mph62%29.12 "HgN/A
12:00 PM35 °FChilly.7 mph65%29.12 "HgN/A
11:00 AM35 °FChilly.7 mph68%29.12 "HgN/A
10:00 AM34 °FChilly.10 mph67%29.12 "HgN/A
9:00 AM33 °FChilly.6 mph73%29.12 "HgN/A
8:00 AM33 °FChilly.6 mph79%29.12 "HgN/A
7:00 AM31 °FChilly.6 mph87%29.12 "HgN/A
6:00 AM31 °FChilly.7 mph86%29.12 "HgN/A
5:00 AM32 °FChilly.8 mph83%29.09 "HgN/A
3:00 AM32 °FChilly.9 mph83%29.09 "HgN/A
2:00 AM32 °FChilly.12 mph87%29.06 "HgN/A
1:00 AM32 °FChilly.8 mph87%29.06 "HgN/A
12:00 AM33 °FChilly.12 mph84%29.03 "HgN/A
11:00 PM
Jan 30
32 °FChilly.12 mph84%29.03 "HgN/A
10:00 PM31 °FChilly.10 mph87%29.00 "HgN/A
Weather by CustomWeather, © 2014

See weather overviewHow to use our weather pages